EHI
0 0 0 0 0 0 0 0 0 0 0 0 0 0 0 0 0 0 0 0 0 0 0 0 0 0 0 0 0 0 0 0 0 0 0 0 0 0 0 0 0 0 0 0
0 0 0 0 0 0 0 0 0 0 0 0 0 0 0 0 0 0 0 0 0 0 0 0 0 0 0 0 0 0 0 0 0 0 0 0 0 0 0 0 0 0 0 0
0 0 0 0 0 0 0 0 0 0 0 0 0 0 0 0 0 0 0 0 0 0 0 0 0 0 0 0 0 0 0 0 0 0 0 0 0 0 0 0 0 0 0 0
0 0 0 0 0 0 0 0 0 0 0 0 0 0 0 0 0 0 0 0 0 0 0 0 0 0 0 0 0 0 0 0 0 0 0 0 0 0 0 0 0 0 0 0
0 0 0 0 0 0 0 0 0 0 0 0 0 0 0 0 0 0 0 0 0 0 0 0 0 0 0 0 0 0 0 0 0 0 0 0 0 0 0 0 0 0 0 0
0 0 0 0 0 0 0 0 0 0 0 0 0 0 0 0 0 0 0 0 0 0 0 0 0 0 0 0 0 0 0 0 0 0 0 0 0 0 0 0 0 0 0 0
0 0 0 0 0 0 0 0 0 0 0 0 0 0 0 0 0 0 0 0 0 0 0 0 0 0 0 0 0 0 0 0 0 0 0 0 0 0 0 0 0 0 0 0
0 0 0 0 0 0 0 0 0 0 0 0 0 0 0 0 0 0 0 0 0 0 0 0 0 0 0 0 0 0 0 0 0 0 0 0 0 0 0 0 0 0 0 0
0 0 0 0 0 0 0 0 0 0 0 0 0 0 0 0 0 0 0 0 0 0 0 0 0 0 0 0 0 0 0 0 0 0 1 1 0 0 0 0 0 0 0 0
0 0 0 0 0 0 0 0 0 0 0 0 0 0 0 0 0 0 0 0 0 0 0 0 0 0 0 0 0 0 0 0 0 0 1 1 0 0 0 0 0 0 0 0
0 0 0 0 0 0 0 0 0 0 0 0 0 0 0 0 0 0 0 0 0 0 0 0 0 0 0 0 0 0 0 0 0 0 1 1 0 0 0 0 0 0 0 0
0 0 0 0 0 0 0 0 0 0 0 0 0 0 0 0 0 0 0 0 0 0 0 0 0 0 0 0 0 0 0 0 0 0 0 0 0 0 0 0 0 0 0 0
0 0 0 0 0 0 0 0 0 0 0 0 0 0 0 0 0 0 0 0 0 0 0 0 0 0 0 0 0 0 0 0 0 0 0 0 0 0 0 0 0 0 0 0
0 0 0 0 0 0 0 0 0 0 0 0 0 0 0 0 0 0 0 0 0 0 0 0 0 0 0 0 0 0 0 0 0 0 0 0 0 0 0 0 0 0 0 0
0 0 0 0 0 0 0 0 0 0 0 0 0 0 0 0 0 0 0 0 0 0 0 0 0 0 0 0 0 0 0 0 0 0 0 0 0 0 0 0 0 0 0 0
0 0 0 0 0 0 0 0 0 0 0 0 0 0 0 0 0 0 0 0 0 0 0 0 0 0 0 0 0 0 0 0 0 0 0 0 0 0 0 0 0 0 0 0
0 0 0 0 0 0 0 0 0 0 0 0 0 0 0 0 0 0 0 0 0 0 0 0 0 0 0 0 0 0 0 0 0 0 0 0 0 0 0 0 0 0 0 0
0 0 0 0 0 0 0 0 0 0 0 0 0 0 0 0 0 0 0 0 0 0 0 0 0 0 0 0 0 0 0 0 0 0 0 0 0 0 0 0 0 0 0 0
0 0 0 0 0 0 0 0 0 0 0 0 0 0 0 0 0 0 0 0 0 0 0 0 0 0 0 0 0 0 0 0 0 0 0 0 0 0 0 0 0 0 0 0
0 0 0 0 0 0 0 0 0 0 0 0 0 0 0 0 0 0 0 0 0 0 0 0 0 0 0 0 0 0 0 0 0 0 0 0 0 0 0 0 0 0 0 0
0 0 0 0 0 0 0 0 0 0 0 0 0 0 0 0 0 0 0 0 0 0 0 0 0 0 0 0 0 0 0 0 0 0 0 0 0 0 0 0 0 0 0 0
0 0 0 0 0 0 0 0 0 0 0 0 0 0 0 0 0 0 0 0 0 0 0 0 0 0 0 0 0 0 0 0 0 0 0 0 0 0 0 0 0 0 0 0
0 0 0 0 0 0 0 0 0 0 0 0 0 0 0 0 0 0 0 0 0 0 0 0 0 0 0 0 0 0 0 0 0 0 0 0 0 0 0 0 0 0 0 0
0 0 0 0 0 0 0 0 0 0 0 0 0 0 0 0 0 0 0 0 0 0 0 0 0 0 0 0 0 0 0 0 0 0 0 0 0 0 0 0 0 0 0 0
0 0 0 0 0 0 0 0 0 0 0 0 0 0 0 0 0 0 0 0 0 0 0 0 0 0 0 0 0 0 0 0 0 0 0 0 0 0 0 0 0 0 0 0
0 0 0 0 0 0 0 0 0 0 0 0 0 0 0 0 0 0 0 0 0 0 0 0 0 0 0 0 0 0 0 0 0 0 0 0 0 0 0 0 0 0 0 0
Wind_Speed
3 5 9 10 10 6 4 4 5 5 3 5 10 12 11 8 7 8 8 8 9 11 10 7 8 9 8 8 10 11 11 10 8 7 7 7 8 7 6 6 7 8 8 8
2 9 9 5 6 6 6 7 6 4 3 4 7 12 10 10 10 10 10 10 10 9 8 7 7 7 9 10 10 10 11 10 10 8 8 6 5 5 5 4 6 8 8 8
9 6 5 5 6 8 9 9 8 5 2 2 3 9 10 9 8 9 10 10 9 11 11 8 7 8 8 9 10 9 11 11 11 9 5 3 3 2 4 5 6 7 8 8
8 6 4 5 7 7 10 8 7 5 3 4 4 7 7 8 9 11 11 10 10 10 9 8 7 7 8 8 8 8 8 9 9 9 7 8 8 8 8 6 5 5 7 7
6 5 6 9 9 7 5 3 5 6 5 5 4 6 8 5 10 11 10 10 10 9 8 7 7 7 6 6 6 6 6 7 7 8 10 10 8 7 5 4 4 5 5 6
6 4 6 7 5 7 3 0 1 2 4 10 10 8 8 6 9 7 8 9 9 8 7 6 4 4 4 3 4 4 5 5 5 7 8 9 9 8 5 6 6 5 5 5
4 5 4 3 3 4 5 4 2 4 7 9 7 9 10 7 7 8 8 8 7 6 5 4 4 4 3 3 3 4 5 4 4 5 6 7 8 8 8 7 7 6 5 5
4 6 7 5 7 7 8 8 7 6 6 4 5 10 8 7 6 6 6 5 4 3 3 3 3 4 4 4 4 4 5 5 4 5 5 6 6 5 5 6 5 5 4 5
4 5 3 6 4 7 7 8 5 2 1 2 6 6 8 3 3 3 2 2 2 2 2 2 2 1 2 3 3 4 4 3 3 3 4 4 4 5 4 4 4 3 3 3
3 4 4 3 2 4 5 5 4 5 5 6 6 6 5 3 3 2 2 2 2 2 2 1 1 1 1 2 2 2 3 3 2 2 2 2 3 3 4 3 3 3 3 3
1 3 3 2 6 7 5 5 5 4 4 5 5 7 5 5 3 2 3 3 2 2 2 2 2 1 1 0 1 2 2 2 1 1 1 1 1 2 2 3 3 3 3 3
2 2 4 6 5 4 6 7 7 5 5 5 5 8 3 3 2 1 3 3 3 3 3 2 1 1 1 0 1 0 1 1 1 1 1 1 0 0 1 2 2 2 3 3
1 2 1 4 3 1 2 3 5 4 3 5 6 10 3 3 3 3 3 3 3 3 3 3 2 1 1 1 0 0 0 1 1 1 1 1 0 0 0 1 1 1 2 2
1 2 4 6 4 2 4 5 4 3 5 6 9 11 9 6 7 6 4 4 4 3 3 3 2 2 2 2 1 1 1 1 0 1 1 1 1 1 1 1 0 0 1 1
2 3 4 5 5 4 7 8 8 8 8 8 9 11 12 8 7 7 6 5 4 3 3 3 3 3 2 2 2 1 2 1 1 1 1 1 1 1 0 0 0 0 0 0
1 2 2 4 4 5 8 10 11 11 10 10 11 15 11 7 5 6 5 4 4 4 4 4 4 3 3 3 3 2 2 1 1 1 2 1 1 0 0 0 1 1 1 1
2 2 1 4 3 3 8 10 11 9 8 8 12 13 7 6 6 6 5 5 5 6 5 5 5 5 4 4 3 3 3 1 1 1 1 1 1 1 1 0 1 1 1 1
5 4 2 2 1 8 10 4 7 9 10 9 9 7 7 7 7 5 4 4 6 6 5 5 4 4 3 2 2 2 2 1 2 1 1 1 1 2 1 1 1 1 1 1
8 6 4 3 4 9 9 5 5 6 8 7 8 9 8 6 4 5 4 3 5 5 4 4 3 3 3 2 2 2 2 1 2 2 2 2 2 2 2 2 2 1 1 1
4 5 4 4 4 9 9 4 2 1 7 6 5 7 6 3 4 7 4 3 4 4 3 3 2 2 2 3 2 2 2 2 3 3 3 2 2 2 2 2 1 1 1 2
3 4 6 7 7 10 9 4 1 4 7 4 4 5 4 5 7 6 5 4 4 3 3 2 2 2 3 2 1 2 2 3 2 2 1 1 1 2 2 1 1 1 2 2
6 5 6 5 7 11 5 2 5 6 4 4 4 4 5 6 6 5 5 5 4 4 3 2 2 2 2 1 2 3 3 2 1 1 1 1 1 1 1 1 1 1 2 2
7 9 7 9 10 6 4 6 5 4 5 5 5 5 5 6 7 6 6 5 5 4 3 2 2 3 3 2 1 3 2 1 1 0 0 0 0 0 0 1 2 2 2 1
6 4 5 7 10 8 7 7 6 5 7 7 5 5 5 7 7 7 6 6 5 4 3 2 2 3 3 3 2 2 1 0 1 1 1 0 0 0 0 0 1 2 2 2
8 4 6 11 11 9 9 8 8 7 6 6 6 5 6 7 8 7 7 6 6 5 3 3 3 4 4 3 2 2 1 1 1 1 1 1 1 1 0 0 0 1 1 2
9 10 10 13 11 8 8 5 5 6 7 7 7 8 6 6 8 7 7 6 5 4 3 3 4 4 4 3 3 2 1 2 2 2 2 1 1 1 1 0 1 1 1 1
Wind_Direction
186 193 210 211 212 217 198 212 231 231 227 209 235 244 248 250 243 242 242 239 238 237 238 230 217 208 202 199 197 196 195 197 188 188 194 199 209 209 208 208 207 206 207 206
196 226 223 219 226 232 227 234 240 269 241 221 247 256 251 242 235 230 233 235 237 242 248 236 221 208 202 202 201 200 199 195 193 197 198 200 200 204 207 206 208 209 208 208
211 227 202 207 219 225 233 225 223 237 310 270 268 272 250 250 240 240 237 233 231 228 233 233 223 213 206 206 204 201 200 196 196 196 184 178 179 191 202 211 216 216 211 210
227 235 218 219 226 214 238 222 220 220 216 243 206 265 256 241 246 240 239 237 237 239 235 228 219 215 207 208 204 202 199 196 195 188 185 187 196 208 214 211 214 214 211 213
226 210 210 220 219 206 233 217 219 225 220 243 223 247 268 238 240 242 239 238 238 238 234 232 223 214 210 203 197 197 193 195 196 191 193 195 205 214 212 199 203 211 213 216
233 224 210 216 212 200 204 204 250 228 213 240 218 222 262 219 222 235 238 237 236 237 236 236 232 208 209 202 191 186 181 191 192 190 195 198 205 208 203 203 208 213 215 218
251 246 236 190 177 188 179 171 198 211 218 239 195 215 248 226 225 222 230 235 239 235 226 222 216 208 203 194 186 178 174 187 192 188 194 200 205 206 209 212 212 213 217 219
207 242 220 206 193 189 196 193 197 204 213 250 203 225 249 236 235 237 233 230 241 239 234 233 224 210 205 198 188 181 180 189 192 192 199 203 202 204 211 213 211 216 223 224
203 245 232 220 212 174 185 209 205 205 247 244 240 265 293 282 265 268 280 297 278 267 259 246 244 207 189 186 188 180 179 189 197 198 195 199 202 202 205 207 207 215 224 226
212 256 262 235 195 210 193 172 164 192 204 234 247 240 240 253 249 280 289 269 279 294 314 324 316 288 229 192 179 157 160 172 183 188 197 192 201 203 203 196 200 208 216 214
201 233 275 231 203 197 182 190 194 198 202 206 243 255 220 208 216 230 267 291 303 299 302 304 296 293 254 100 152 157 155 158 153 167 182 188 204 205 205 205 210 210 212 212
193 201 253 245 253 229 199 198 192 206 228 217 239 259 247 216 234 259 285 298 302 306 306 308 295 309 328 60 38 148 159 157 175 190 184 174 191 204 207 225 229 215 211 213
157 160 294 320 315 346 216 211 208 222 222 216 227 258 285 321 316 311 302 297 299 311 322 329 318 284 269 261 279 320 277 219 197 164 163 156 159 163 249 275 269 235 219 215
137 175 196 219 238 260 260 260 234 208 226 237 236 260 284 296 299 299 294 282 277 276 286 301 299 288 287 283 269 245 271 264 210 139 147 204 228 211 210 212 244 267 223 214
116 201 227 251 258 251 253 256 243 232 227 233 248 255 267 265 265 269 271 270 269 273 282 283 281 286 291 295 295 263 255 261 225 172 176 239 263 256 219 136 109 80 43 22
101 209 229 267 261 262 270 255 244 243 238 239 252 262 266 268 264 268 265 255 253 256 257 263 270 275 272 267 267 267 258 251 213 203 219 226 225 247 302 82 89 88 72 63
213 165 190 257 287 324 264 239 233 230 223 221 240 254 275 284 275 259 250 248 246 253 253 251 252 252 257 259 256 253 254 234 200 212 230 232 211 206 219 171 120 131 126 98
201 185 197 242 51 236 245 236 225 235 244 239 246 264 265 260 262 260 240 243 263 267 269 269 268 273 277 280 280 278 269 221 202 214 234 232 223 227 211 181 178 181 153 145
202 187 185 187 231 268 283 260 212 220 252 246 249 262 268 275 285 273 266 257 260 268 271 273 273 280 287 280 278 275 262 233 213 226 235 234 222 217 205 203 205 189 156 142
192 181 185 190 212 241 251 252 241 203 264 255 244 258 268 295 278 272 287 285 281 289 294 300 310 309 284 280 278 247 241 232 240 250 253 249 229 215 215 220 213 180 155 148
159 194 209 217 233 255 256 266 120 196 249 273 253 251 252 242 245 266 287 288 278 281 291 297 289 281 274 283 262 245 242 246 269 289 284 273 254 233 218 210 177 148 136 131
191 196 208 199 225 251 242 170 196 232 262 279 277 264 260 262 271 280 283 282 285 285 286 274 272 285 287 276 247 249 256 277 305 284 267 279 287 252 191 163 158 145 145 147
213 204 201 205 225 242 224 220 234 233 259 270 268 268 264 270 274 276 276 275 276 276 277 274 268 280 291 286 251 247 274 316 319 288 252 267 277 266 199 177 165 150 150 159
254 230 226 251 256 256 260 260 258 252 252 260 263 267 266 269 274 274 274 272 269 266 258 256 252 261 277 289 285 267 280 286 219 211 210 172 138 39 22 177 172 173 181 184
230 218 234 254 264 275 264 250 254 257 258 265 271 268 265 265 270 268 271 271 268 266 257 241 238 247 255 264 270 280 271 191 208 211 200 181 171 182 184 16 255 213 224 206
215 213 224 246 245 241 258 252 248 253 258 262 269 274 270 259 265 270 268 267 264 259 253 247 248 251 257 256 259 265 255 210 190 204 207 198 192 188 177 135 24 107 150 153